Location: Birkenwerder
(52.6919°N, 13.2774°E)
Time: 21:41:39
(UTC+00:00)

Cosmos-2242 - Pass Details

Date: 07 June 2020
Orbit: 590 x 618 km, 82.5° (Epoch: 04 July)

Event Time Altitude Azimuth Distance (km) Brightness Sun altitude
Rises 00:25:23 0° 343° (NNW) 2,841 7.4 -12.6°
Reaches altitude 10° 00:27:41 10° 337° (NNW) 1,934 6.3 -12.4°
Maximum altitude 00:31:40 41° 267° (W) 873 3.6 -12.2°
Enters shadow 00:34:24 18° 206° (SSW) 1,461 4.3 -12.1°
